RYR32T EIDW-EGKK

Flight info

Callsign RYR32T
Flight time 0h 50m
Altitude 33000
Route ENDEQ1E ENDEQ Q36 EPOXI L15 KEPAD L151 DISIT DISIT1G
Aircraft B738/M-SDE2E3FGHIRWXY/LB1

Departure

Time 2026-05-07 14:23
Airport Dublin Airport (EIDW)

Arrival

Time 2026-05-07 15:13
Airport London Gatwick Airport (EGKK)
Time Latitude Longitude Altitude Speed Heading
2026-05-07 13:51 53.43102 -6.24829 215 ft 0 kts 185°
2026-05-07 14:07 53.43104 -6.24829 210 ft 2 kts 185°
2026-05-07 14:08 53.43130 -6.24825 210 ft 4 kts 185°
2026-05-07 14:08 53.43156 -6.24821 210 ft 4 kts 185°
2026-05-07 14:08 53.43180 -6.24817 210 ft 4 kts 189°
2026-05-07 14:08 53.43201 -6.24802 210 ft 4 kts 246°
2026-05-07 14:09 53.43204 -6.24762 210 ft 2 kts 275°
2026-05-07 14:09 53.43203 -6.24752 210 ft 0 kts 275°
2026-05-07 14:11 53.43203 -6.24758 210 ft 2 kts 275°
2026-05-07 14:12 53.43206 -6.24798 216 ft 6 kts 275°
2026-05-07 14:12 53.43211 -6.24892 210 ft 10 kts 275°
2026-05-07 14:12 53.43218 -6.25026 217 ft 12 kts 275°
2026-05-07 14:12 53.43225 -6.25162 210 ft 12 kts 275°
2026-05-07 14:13 53.43230 -6.25257 213 ft 6 kts 275°
2026-05-07 14:13 53.43230 -6.25296 210 ft 2 kts 265°
2026-05-07 14:13 53.43224 -6.25325 214 ft 4 kts 249°
2026-05-07 14:13 53.43210 -6.25384 216 ft 7 kts 247°
2026-05-07 14:14 53.43185 -6.25468 218 ft 9 kts 233°
2026-05-07 14:14 53.43123 -6.25482 216 ft 10 kts 156°
2026-05-07 14:14 53.43060 -6.25436 212 ft 10 kts 156°
2026-05-07 14:14 53.42999 -6.25392 218 ft 9 kts 156°
2026-05-07 14:15 53.42939 -6.25348 215 ft 9 kts 156°
2026-05-07 14:15 53.42879 -6.25304 215 ft 10 kts 156°
2026-05-07 14:15 53.42818 -6.25259 210 ft 10 kts 156°
2026-05-07 14:15 53.42773 -6.25289 212 ft 6 kts 226°
2026-05-07 14:16 53.42742 -6.25342 215 ft 6 kts 225°
2026-05-07 14:16 53.42709 -6.25398 216 ft 7 kts 225°
2026-05-07 14:16 53.42663 -6.25475 211 ft 12 kts 225°
2026-05-07 14:16 53.42596 -6.25592 215 ft 16 kts 226°
2026-05-07 14:17 53.42519 -6.25724 210 ft 16 kts 225°
2026-05-07 14:17 53.42444 -6.25850 210 ft 15 kts 225°
2026-05-07 14:17 53.42373 -6.25971 210 ft 14 kts 226°
2026-05-07 14:17 53.42306 -6.26087 215 ft 14 kts 226°
2026-05-07 14:18 53.42265 -6.26223 215 ft 13 kts 262°
2026-05-07 14:18 53.42267 -6.26322 210 ft 13 kts 276°
2026-05-07 14:18 53.42276 -6.26469 217 ft 12 kts 275°
2026-05-07 14:18 53.42283 -6.26613 212 ft 13 kts 275°
2026-05-07 14:19 53.42296 -6.26841 210 ft 16 kts 275°
2026-05-07 14:19 53.42307 -6.27032 210 ft 16 kts 275°
2026-05-07 14:19 53.42317 -6.27225 210 ft 18 kts 275°
2026-05-07 14:19 53.42329 -6.27454 210 ft 21 kts 275°
2026-05-07 14:20 53.42338 -6.27612 213 ft 20 kts 275°
2026-05-07 14:20 53.42351 -6.27847 215 ft 20 kts 275°
2026-05-07 14:20 53.42363 -6.28069 215 ft 19 kts 275°
2026-05-07 14:20 53.42375 -6.28286 217 ft 18 kts 275°
2026-05-07 14:21 53.42387 -6.28497 210 ft 18 kts 275°
2026-05-07 14:21 53.42398 -6.28699 210 ft 17 kts 275°
2026-05-07 14:21 53.42409 -6.28895 219 ft 17 kts 276°
2026-05-07 14:21 53.42376 -6.29061 210 ft 16 kts 211°
2026-05-07 14:22 53.42248 -6.29036 212 ft 11 kts 123°
2026-05-07 14:22 53.42239 -6.28954 215 ft 11 kts 91°
2026-05-07 14:22 53.42232 -6.28827 211 ft 12 kts 95°
2026-05-07 14:22 53.42210 -6.28431 216 ft 67 kts 95°
2026-05-07 14:23 53.42148 -6.27285 213 ft 128 kts 96°
2026-05-07 14:23 53.42045 -6.25568 429 ft 155 kts 101°
2026-05-07 14:23 53.41932 -6.23821 1126 ft 155 kts 100°
2026-05-07 14:23 53.41812 -6.21902 1558 ft 170 kts 100°
2026-05-07 14:24 53.41720 -6.19978 2324 ft 164 kts 100°
2026-05-07 14:24 53.41618 -6.18039 2901 ft 171 kts 101°
2026-05-07 14:24 53.41513 -6.16025 3499 ft 172 kts 101°
2026-05-07 14:24 53.41399 -6.13926 3809 ft 196 kts 101°
2026-05-07 14:25 53.41266 -6.11526 4033 ft 217 kts 101°
2026-05-07 14:25 53.41118 -6.08896 4204 ft 236 kts 98°
2026-05-07 14:25 53.40961 -6.06090 4507 ft 247 kts 99°
2026-05-07 14:25 53.40911 -6.03177 4944 ft 255 kts 89°
2026-05-07 14:26 53.41114 -6.00209 5498 ft 256 kts 85°
2026-05-07 14:26 53.41353 -5.97252 6131 ft 256 kts 85°
2026-05-07 14:26 53.41585 -5.94272 6631 ft 260 kts 85°
2026-05-07 14:26 53.41809 -5.91205 7099 ft 273 kts 86°
2026-05-07 14:27 53.42033 -5.87972 7599 ft 284 kts 86°
2026-05-07 14:27 53.42257 -5.84648 8281 ft 290 kts 86°
2026-05-07 14:27 53.42482 -5.81277 9044 ft 293 kts 87°
2026-05-07 14:27 53.42714 -5.77865 9864 ft 295 kts 86°
2026-05-07 14:28 53.42949 -5.74430 10579 ft 299 kts 86°
2026-05-07 14:28 53.43185 -5.70982 11296 ft 303 kts 86°
2026-05-07 14:28 53.43426 -5.67456 12069 ft 306 kts 86°
2026-05-07 14:28 53.43671 -5.63831 12494 ft 324 kts 86°
2026-05-07 14:29 53.43932 -5.59947 12684 ft 347 kts 86°
2026-05-07 14:29 53.44206 -5.55851 13169 ft 359 kts 86°
2026-05-07 14:29 53.44487 -5.51664 13891 ft 363 kts 85°
2026-05-07 14:29 53.44676 -5.47409 14438 ft 371 kts 92°
2026-05-07 14:30 53.44589 -5.42969 14624 ft 389 kts 96°
2026-05-07 14:30 53.44400 -5.38384 15099 ft 398 kts 96°
2026-05-07 14:30 53.44213 -5.33795 15763 ft 402 kts 96°
2026-05-07 14:30 53.44049 -5.29095 16414 ft 406 kts 95°
2026-05-07 14:31 53.43908 -5.24342 17043 ft 411 kts 95°
2026-05-07 14:31 53.43775 -5.19532 17659 ft 415 kts 95°
2026-05-07 14:31 53.43640 -5.14680 18316 ft 418 kts 95°
2026-05-07 14:31 53.43502 -5.09800 18902 ft 420 kts 95°
2026-05-07 14:32 53.43360 -5.04885 19453 ft 424 kts 95°
2026-05-07 14:32 53.43215 -4.99949 20009 ft 427 kts 95°
2026-05-07 14:32 53.43071 -4.95054 20509 ft 430 kts 95°
2026-05-07 14:32 53.42922 -4.90096 21036 ft 433 kts 95°
2026-05-07 14:33 53.42764 -4.84963 21561 ft 436 kts 95°
2026-05-07 14:33 53.42597 -4.79869 22065 ft 439 kts 95°
2026-05-07 14:33 53.42420 -4.74734 22560 ft 443 kts 95°
2026-05-07 14:33 53.42238 -4.69565 23047 ft 446 kts 96°
2026-05-07 14:34 53.42056 -4.64430 23511 ft 449 kts 96°
2026-05-07 14:34 53.41870 -4.59201 23938 ft 450 kts 96°
2026-05-07 14:34 53.41682 -4.53965 24415 ft 450 kts 96°
2026-05-07 14:34 53.41491 -4.48717 24846 ft 451 kts 96°
2026-05-07 14:35 53.41299 -4.43457 25235 ft 453 kts 96°
2026-05-07 14:35 53.41102 -4.38169 25617 ft 456 kts 96°
2026-05-07 14:35 53.40903 -4.32861 26000 ft 457 kts 96°
2026-05-07 14:35 53.40701 -4.27540 26387 ft 458 kts 96°
2026-05-07 14:36 53.40498 -4.22275 26750 ft 460 kts 96°
2026-05-07 14:36 53.40290 -4.16913 27107 ft 462 kts 96°
2026-05-07 14:36 53.40079 -4.11537 27452 ft 463 kts 96°
2026-05-07 14:36 53.39866 -4.06157 27880 ft 462 kts 96°
2026-05-07 14:37 53.39651 -4.00787 28332 ft 461 kts 96°
2026-05-07 14:37 53.39229 -3.90244 29353 ft 456 kts 96°
2026-05-07 14:37 53.39023 -3.84959 29875 ft 454 kts 96°
2026-05-07 14:38 53.38817 -3.79700 30315 ft 452 kts 96°
2026-05-07 14:38 53.38610 -3.74527 30688 ft 451 kts 97°
2026-05-07 14:38 53.38394 -3.69290 30996 ft 451 kts 97°
2026-05-07 14:38 53.37910 -3.64093 30989 ft 451 kts 106°
2026-05-07 14:39 53.35672 -3.54419 31001 ft 442 kts 116°
2026-05-07 14:39 53.32974 -3.45265 31008 ft 437 kts 124°
2026-05-07 14:40 53.29140 -3.37436 31013 ft 436 kts 133°
2026-05-07 14:40 53.25106 -3.29960 31011 ft 437 kts 133°
2026-05-07 14:41 53.21074 -3.22367 31019 ft 437 kts 133°
2026-05-07 14:41 53.17037 -3.14762 31020 ft 438 kts 133°
2026-05-07 14:42 53.12986 -3.07162 31020 ft 439 kts 133°
2026-05-07 14:42 53.08991 -2.99688 31024 ft 439 kts 133°
2026-05-07 14:43 53.04929 -2.92108 31015 ft 439 kts 133°
2026-05-07 14:43 53.00861 -2.84543 31016 ft 439 kts 133°
2026-05-07 14:44 52.96794 -2.77001 31019 ft 438 kts 133°
2026-05-07 14:44 52.92707 -2.69441 31136 ft 444 kts 133°
2026-05-07 14:45 52.90643 -2.65632 31525 ft 442 kts 133°
2026-05-07 14:45 52.88629 -2.61917 32035 ft 438 kts 133°
2026-05-07 14:45 52.86601 -2.58182 32480 ft 435 kts 133°
2026-05-07 14:45 52.84576 -2.54460 32804 ft 435 kts 133°
2026-05-07 14:46 52.82552 -2.50748 33028 ft 435 kts 133°
2026-05-07 14:46 52.80394 -2.47253 33013 ft 433 kts 140°
2026-05-07 14:46 52.75421 -2.41679 33031 ft 432 kts 147°
2026-05-07 14:47 52.70366 -2.36244 33025 ft 435 kts 147°
2026-05-07 14:47 52.65352 -2.30761 33036 ft 437 kts 146°
2026-05-07 14:48 52.60288 -2.25190 33023 ft 438 kts 146°
2026-05-07 14:48 52.55192 -2.19590 32414 ft 446 kts 146°
2026-05-07 14:49 52.52620 -2.16772 31757 ft 442 kts 146°
2026-05-07 14:49 52.50062 -2.13974 31012 ft 442 kts 147°
2026-05-07 14:49 52.47502 -2.11177 30232 ft 443 kts 147°
2026-05-07 14:49 52.44972 -2.08417 29321 ft 443 kts 147°
2026-05-07 14:50 52.42400 -2.05616 28424 ft 443 kts 147°
2026-05-07 14:50 52.39834 -2.02825 27511 ft 444 kts 147°
2026-05-07 14:50 52.37270 -2.00037 26841 ft 439 kts 147°
2026-05-07 14:50 52.34788 -1.97342 26198 ft 435 kts 147°
2026-05-07 14:51 52.32279 -1.94624 25577 ft 431 kts 148°
2026-05-07 14:51 52.29792 -1.91933 24965 ft 427 kts 148°
2026-05-07 14:51 52.27328 -1.89271 24364 ft 423 kts 148°
2026-05-07 14:51 52.24880 -1.86637 23749 ft 421 kts 149°
2026-05-07 14:52 52.22436 -1.84025 23053 ft 418 kts 149°
2026-05-07 14:52 52.20010 -1.81438 22402 ft 415 kts 149°
2026-05-07 14:52 52.17611 -1.78882 21820 ft 410 kts 149°
2026-05-07 14:52 52.15268 -1.76385 21242 ft 406 kts 149°
2026-05-07 14:53 52.12914 -1.73880 20646 ft 403 kts 149°
2026-05-07 14:53 52.10579 -1.71399 20065 ft 399 kts 149°
2026-05-07 14:53 52.08272 -1.68948 19725 ft 391 kts 149°
2026-05-07 14:53 52.05995 -1.66531 19396 ft 396 kts 149°
2026-05-07 14:54 52.03658 -1.64057 19061 ft 405 kts 149°
2026-05-07 14:54 52.01286 -1.61546 18698 ft 409 kts 149°
2026-05-07 14:54 51.98915 -1.59037 18322 ft 405 kts 149°
2026-05-07 14:54 51.96602 -1.56590 17935 ft 400 kts 148°
2026-05-07 14:55 51.94252 -1.54109 17562 ft 396 kts 148°
2026-05-07 14:55 51.91985 -1.51718 17214 ft 392 kts 148°
2026-05-07 14:55 51.89706 -1.49319 16883 ft 389 kts 148°
2026-05-07 14:55 51.87441 -1.46937 16540 ft 387 kts 148°
2026-05-07 14:56 51.85185 -1.44568 16194 ft 386 kts 148°
2026-05-07 14:56 51.82938 -1.42209 15873 ft 385 kts 148°
2026-05-07 14:56 51.80696 -1.39859 15542 ft 383 kts 148°
2026-05-07 14:56 51.78458 -1.37518 15205 ft 383 kts 148°
2026-05-07 14:57 51.76231 -1.35190 14976 ft 379 kts 148°
2026-05-07 14:57 51.74028 -1.32891 14832 ft 375 kts 148°
2026-05-07 14:57 51.71849 -1.30618 14696 ft 374 kts 148°
2026-05-07 14:57 51.69654 -1.28332 14559 ft 378 kts 148°
2026-05-07 14:58 51.67473 -1.26062 14410 ft 377 kts 148°
2026-05-07 14:58 51.65270 -1.23772 14271 ft 375 kts 148°
2026-05-07 14:58 51.63083 -1.21500 14129 ft 374 kts 148°
2026-05-07 14:58 51.60905 -1.19240 13989 ft 372 kts 148°
2026-05-07 14:59 51.58731 -1.16986 13841 ft 371 kts 148°
2026-05-07 14:59 51.56559 -1.14738 13690 ft 371 kts 148°
2026-05-07 14:59 51.54391 -1.12496 13540 ft 370 kts 148°
2026-05-07 14:59 51.52229 -1.10263 13395 ft 370 kts 148°
2026-05-07 15:00 51.50097 -1.08062 13281 ft 355 kts 148°
2026-05-07 15:00 51.48093 -1.05995 13158 ft 338 kts 148°
2026-05-07 15:00 51.46169 -1.04012 12954 ft 322 kts 148°
2026-05-07 15:00 51.44291 -1.02080 12400 ft 319 kts 148°
2026-05-07 15:01 51.42439 -1.00179 11920 ft 314 kts 148°
2026-05-07 15:01 51.40662 -0.98355 11484 ft 309 kts 148°
2026-05-07 15:01 51.38862 -0.96510 11027 ft 305 kts 148°
2026-05-07 15:01 51.37087 -0.94691 10584 ft 302 kts 148°
2026-05-07 15:02 51.35331 -0.92895 10306 ft 294 kts 148°
2026-05-07 15:02 51.33657 -0.91181 10218 ft 278 kts 148°
2026-05-07 15:02 51.32099 -0.89587 9998 ft 264 kts 149°
2026-05-07 15:02 51.30568 -0.88024 9469 ft 258 kts 149°
2026-05-07 15:03 51.29056 -0.86482 8941 ft 257 kts 149°
2026-05-07 15:03 51.27562 -0.84961 8472 ft 254 kts 149°
2026-05-07 15:03 51.26082 -0.83455 8001 ft 251 kts 149°
2026-05-07 15:03 51.24618 -0.81966 7537 ft 248 kts 148°
2026-05-07 15:04 51.23169 -0.80492 7113 ft 245 kts 148°
2026-05-07 15:04 51.21748 -0.79049 6731 ft 241 kts 148°
2026-05-07 15:04 51.20343 -0.77622 6349 ft 239 kts 147°
2026-05-07 15:04 51.18946 -0.76204 5958 ft 237 kts 147°
2026-05-07 15:05 51.17569 -0.74808 5579 ft 232 kts 147°
2026-05-07 15:05 51.16254 -0.73474 5323 ft 222 kts 147°
2026-05-07 15:05 51.14972 -0.72176 5052 ft 215 kts 147°
2026-05-07 15:05 51.13734 -0.70923 4799 ft 206 kts 147°
2026-05-07 15:06 51.12547 -0.69721 4532 ft 198 kts 147°
2026-05-07 15:06 51.11403 -0.68564 4260 ft 192 kts 147°
2026-05-07 15:06 51.10288 -0.67438 3994 ft 188 kts 148°
2026-05-07 15:06 51.09199 -0.66299 3726 ft 187 kts 140°
2026-05-07 15:07 51.08557 -0.64560 3449 ft 187 kts 94°
2026-05-07 15:07 51.08833 -0.62554 3253 ft 188 kts 71°
2026-05-07 15:07 51.09180 -0.60541 3023 ft 189 kts 78°
2026-05-07 15:07 51.09462 -0.58525 2986 ft 190 kts 79°
2026-05-07 15:08 51.09739 -0.56477 2976 ft 188 kts 79°
2026-05-07 15:08 51.10012 -0.54442 2976 ft 188 kts 79°
2026-05-07 15:08 51.10284 -0.52414 2976 ft 188 kts 79°
2026-05-07 15:08 51.10557 -0.50381 2981 ft 188 kts 78°
2026-05-07 15:09 51.10830 -0.48345 2985 ft 188 kts 78°
2026-05-07 15:09 51.11105 -0.46302 2985 ft 189 kts 79°
2026-05-07 15:09 51.11381 -0.44257 2981 ft 189 kts 79°
2026-05-07 15:09 51.11657 -0.42211 2928 ft 191 kts 78°
2026-05-07 15:10 51.11939 -0.40122 2707 ft 193 kts 79°
2026-05-07 15:10 51.12216 -0.38075 2452 ft 184 kts 80°
2026-05-07 15:10 51.12484 -0.36106 2219 ft 168 kts 81°
2026-05-07 15:10 51.12716 -0.34402 1971 ft 156 kts 80°
2026-05-07 15:11 51.12938 -0.32754 1787 ft 151 kts 80°
2026-05-07 15:11 51.13161 -0.31118 1583 ft 150 kts 79°
2026-05-07 15:11 51.13381 -0.29493 1395 ft 150 kts 80°
2026-05-07 15:11 51.13600 -0.27874 1185 ft 149 kts 81°
2026-05-07 15:12 51.13816 -0.26296 995 ft 147 kts 79°
2026-05-07 15:12 51.14044 -0.24715 790 ft 145 kts 79°
2026-05-07 15:12 51.14256 -0.23156 576 ft 143 kts 81°
2026-05-07 15:12 51.14461 -0.21641 346 ft 138 kts 81°
2026-05-07 15:13 51.14657 -0.20185 213 ft 129 kts 81°
2026-05-07 15:13 51.14826 -0.18924 208 ft 100 kts 77°
2026-05-07 15:13 51.14952 -0.18031 208 ft 66 kts 77°
2026-05-07 15:13 51.15027 -0.17487 205 ft 41 kts 77°
2026-05-07 15:14 51.15084 -0.17074 203 ft 31 kts 77°
2026-05-07 15:14 51.15122 -0.16798 205 ft 22 kts 78°
2026-05-07 15:14 51.15157 -0.16642 211 ft 10 kts 34°
2026-05-07 15:14 51.15222 -0.16643 206 ft 10 kts 348°
2026-05-07 15:15 51.15276 -0.16639 211 ft 8 kts 44°
2026-05-07 15:15 51.15292 -0.16555 208 ft 8 kts 78°
2026-05-07 15:15 51.15300 -0.16470 208 ft 8 kts 82°
2026-05-07 15:15 51.15310 -0.16388 207 ft 7 kts 79°
2026-05-07 15:16 51.15331 -0.16338 209 ft 6 kts
2026-05-07 15:16 51.15358 -0.16340 205 ft 3 kts 356°
2026-05-07 15:16 51.15365 -0.16341 206 ft 1 kts 356°